Stündliche Wetter Holubivka

Heute, 15 Juni, Dienstag

Zeit Temperatur Niederschläge Wind Luftdruck Luftfeuchtigkeit
00:00 +15°C° 0.3 mm 2 m/S 739 mmHg 94%
01:00 +15°C° 0.3 mm 2 m/S 739 mmHg 95%
02:00 +15°C° 0.3 mm 2 m/S 739 mmHg 95%
03:00 +15°C° 0 mm 2 m/S 739 mmHg 96%
04:00 +15°C° 0 mm 2 m/S 739 mmHg 96%
05:00 +15°C° 0 mm 2 m/S 739 mmHg 97%
06:00 +16°C° 0 mm 3 m/S 739 mmHg 93%
07:00 +18°C° 0 mm 3 m/S 739 mmHg 89%
08:00 +20°C° 0 mm 4 m/S 740 mmHg 86%
09:00 +21°C° 0.6 mm 4 m/S 739 mmHg 81%
10:00 +22°C° 0.6 mm 4 m/S 739 mmHg 77%
11:00 +23°C° 0.6 mm 4 m/S 739 mmHg 73%
12:00 +23°C° 0.4 mm 4 m/S 739 mmHg 71%
13:00 +25°C° 0.4 mm 4 m/S 738 mmHg 69%
14:00 +25°C° 0.4 mm 4 m/S 738 mmHg 67%
15:00 +25°C° 0.6 mm 4 m/S 738 mmHg 70%
16:00 +23°C° 0.6 mm 4 m/S 738 mmHg 74%
17:00 +23°C° 0.6 mm 4 m/S 737 mmHg 78%
18:00 +21°C° 0.3 mm 4 m/S 737 mmHg 82%
19:00 +20°C° 0.3 mm 4 m/S 737 mmHg 86%
20:00 +18°C° 0.3 mm 4 m/S 737 mmHg 90%
21:00 +18°C° 0.3 mm 4 m/S 737 mmHg 91%
22:00 +18°C° 0.3 mm 4 m/S 737 mmHg 92%
23:00 +17°C° 0.3 mm 4 m/S 737 mmHg 93%

Morgen, 16 Juni, Mittwoch

Zeit Temperatur Niederschläge Wind Luftdruck Luftfeuchtigkeit
00:00 +17°C° 0.1 mm 4 m/S 737 mmHg 93%
01:00 +15°C° 0.1 mm 4 m/S 737 mmHg 94%
02:00 +15°C° 0.1 mm 4 m/S 737 mmHg 94%
03:00 +15°C° 0.2 mm 4 m/S 737 mmHg 94%
04:00 +14°C° 0.2 mm 4 m/S 738 mmHg 94%
05:00 +14°C° 0.2 mm 4 m/S 738 mmHg 94%
06:00 +16°C° 0 mm 5 m/S 738 mmHg 91%
07:00 +17°C° 0 mm 5 m/S 738 mmHg 88%
08:00 +19°C° 0 mm 6 m/S 738 mmHg 85%
09:00 +21°C° 0 mm 6 m/S 738 mmHg 80%
10:00 +22°C° 0 mm 6 m/S 739 mmHg 76%
11:00 +23°C° 0 mm 6 m/S 739 mmHg 72%
12:00 +23°C° 0.7 mm 5 m/S 739 mmHg 74%
13:00 +23°C° 0.7 mm 5 m/S 739 mmHg 75%
14:00 +23°C° 0.7 mm 5 m/S 739 mmHg 77%
15:00 +22°C° 1 mm 5 m/S 739 mmHg 79%
16:00 +22°C° 1 mm 5 m/S 739 mmHg 80%
17:00 +22°C° 1 mm 4 m/S 739 mmHg 81%
18:00 +21°C° 0.3 mm 4 m/S 739 mmHg 84%
19:00 +20°C° 0.3 mm 3 m/S 740 mmHg 88%
20:00 +19°C° 0.3 mm 3 m/S 740 mmHg 91%
21:00 +18°C° 0.2 mm 3 m/S 740 mmHg 92%
22:00 +18°C° 0.2 mm 3 m/S 740 mmHg 93%
23:00 +17°C° 0.2 mm 3 m/S 740 mmHg 94%

übermorgen, 17 Juni, Donnerstag

Zeit Temperatur Niederschläge Wind Luftdruck Luftfeuchtigkeit
00:00 +17°C° 0.2 mm 3 m/S 740 mmHg 94%
01:00 +17°C° 0.2 mm 3 m/S 741 mmHg 95%
02:00 +16°C° 0.2 mm 3 m/S 741 mmHg 96%
03:00 +15°C° 0 mm 4 m/S 741 mmHg 96%
04:00 +15°C° 0 mm 4 m/S 741 mmHg 96%
05:00 +17°C° 0 mm 4 m/S 741 mmHg 96%
06:00 +17°C° 0 mm 5 m/S 741 mmHg 93%
07:00 +19°C° 0 mm 5 m/S 742 mmHg 90%
08:00 +21°C° 0 mm 5 m/S 742 mmHg 86%
09:00 +22°C° 0 mm 6 m/S 742 mmHg 82%
10:00 +23°C° 0 mm 6 m/S 743 mmHg 77%
11:00 +24°C° 0 mm 6 m/S 743 mmHg 72%
12:00 +24°C° 0.1 mm 6 m/S 743 mmHg 71%
13:00 +26°C° 0.1 mm 6 m/S 743 mmHg 70%
14:00 +26°C° 0.1 mm 6 m/S 743 mmHg 69%
15:00 +26°C° 0 mm 6 m/S 743 mmHg 71%
16:00 +26°C° 0 mm 6 m/S 743 mmHg 73%
17:00 +24°C° 0 mm 6 m/S 743 mmHg 76%
18:00 +23°C° 0 mm 6 m/S 743 mmHg 79%
19:00 +22°C° 0 mm 5 m/S 743 mmHg 82%
20:00 +20°C° 0 mm 5 m/S 744 mmHg 86%
21:00 +19°C° 0 mm 5 m/S 744 mmHg 88%
22:00 +18°C° 0 mm 4 m/S 744 mmHg 91%
23:00 +17°C° 0 mm 4 m/S 744 mmHg 94%

18 Juni, Freitag

Zeit Temperatur Niederschläge Wind Luftdruck Luftfeuchtigkeit
00:00 +17°C° 0 mm 3 m/S 744 mmHg 95%
01:00 +16°C° 0 mm 3 m/S 744 mmHg 95%
02:00 +16°C° 0 mm 3 m/S 744 mmHg 96%
03:00 +16°C° 0 mm 3 m/S 744 mmHg 96%
04:00 +14°C° 0 mm 3 m/S 744 mmHg 95%
05:00 +14°C° 0 mm 3 m/S 745 mmHg 95%
06:00 +17°C° 0 mm 4 m/S 745 mmHg 91%
07:00 +18°C° 0 mm 4 m/S 745 mmHg 87%
08:00 +20°C° 0 mm 5 m/S 745 mmHg 83%
09:00 +21°C° 0 mm 5 m/S 745 mmHg 80%
10:00 +22°C° 0 mm 5 m/S 745 mmHg 77%
11:00 +23°C° 0 mm 6 m/S 745 mmHg 74%
12:00 +23°C° 0 mm 6 m/S 745 mmHg 75%
13:00 +23°C° 0 mm 6 m/S 745 mmHg 75%
14:00 +23°C° 0 mm 5 m/S 745 mmHg 76%
15:00 +23°C° 0 mm 5 m/S 745 mmHg 77%
16:00 +23°C° 0 mm 5 m/S 745 mmHg 78%
17:00 +23°C° 0 mm 5 m/S 745 mmHg 79%
18:00 +22°C° 0 mm 5 m/S 745 mmHg 83%
19:00 +21°C° 0 mm 4 m/S 745 mmHg 86%
20:00 +20°C° 0 mm 4 m/S 745 mmHg 90%
21:00 +19°C° 0 mm 4 m/S 745 mmHg 91%
22:00 +18°C° 0 mm 3 m/S 745 mmHg 93%
23:00 +17°C° 0 mm 3 m/S 745 mmHg 94%

19 Juni, Samstag

Zeit Temperatur Niederschläge Wind Luftdruck Luftfeuchtigkeit
00:00 +17°C° 0 mm 3 m/S 745 mmHg 95%
01:00 +16°C° 0 mm 3 m/S 745 mmHg 95%
02:00 +16°C° 0 mm 3 m/S 745 mmHg 95%
03:00 +16°C° 0 mm 3 m/S 745 mmHg 95%
04:00 +16°C° 0 mm 3 m/S 745 mmHg 95%
05:00 +16°C° 0 mm 2 m/S 746 mmHg 94%
06:00 +17°C° 0 mm 3 m/S 746 mmHg 92%
07:00 +18°C° 0 mm 3 m/S 746 mmHg 90%
08:00 +19°C° 0 mm 3 m/S 746 mmHg 87%
09:00 +20°C° 0 mm 3 m/S 746 mmHg 83%
10:00 +21°C° 0 mm 4 m/S 746 mmHg 79%
11:00 +22°C° 0 mm 4 m/S 746 mmHg 75%
12:00 +23°C° 0.1 mm 4 m/S 746 mmHg 71%
13:00 +25°C° 0.1 mm 4 m/S 746 mmHg 66%
14:00 +26°C° 0.1 mm 4 m/S 745 mmHg 62%
15:00 +25°C° 0.1 mm 4 m/S 745 mmHg 66%
16:00 +25°C° 0.1 mm 4 m/S 745 mmHg 70%
17:00 +24°C° 0.1 mm 3 m/S 745 mmHg 75%
18:00 +22°C° 0 mm 3 m/S 745 mmHg 77%
19:00 +21°C° 0 mm 3 m/S 745 mmHg 79%
20:00 +20°C° 0 mm 3 m/S 745 mmHg 81%
21:00 +19°C° 0 mm 3 m/S 745 mmHg 83%
22:00 +18°C° 0 mm 3 m/S 745 mmHg 84%
23:00 +18°C° 0 mm 2 m/S 745 mmHg 85%

20 Juni, Sonntag

Zeit Temperatur Niederschläge Wind Luftdruck Luftfeuchtigkeit
00:00 +17°C° 0 mm 2 m/S 745 mmHg 85%
01:00 +17°C° 0 mm 2 m/S 745 mmHg 86%
02:00 +16°C° 0 mm 2 m/S 745 mmHg 87%
03:00 +16°C° 0 mm 2 m/S 745 mmHg 87%
04:00 +16°C° 0 mm 2 m/S 745 mmHg 88%
05:00 +16°C° 0 mm 2 m/S 745 mmHg 89%
06:00 +18°C° 0 mm 2 m/S 745 mmHg 85%
07:00 +19°C° 0 mm 3 m/S 745 mmHg 81%
08:00 +21°C° 0 mm 3 m/S 745 mmHg 76%
09:00 +22°C° 0 mm 3 m/S 745 mmHg 72%
10:00 +24°C° 0 mm 3 m/S 745 mmHg 68%
11:00 +25°C° 0 mm 4 m/S 745 mmHg 64%
12:00 +25°C° 0 mm 3 m/S 745 mmHg 63%
13:00 +25°C° 0 mm 3 m/S 745 mmHg 62%
14:00 +26°C° 0 mm 3 m/S 744 mmHg 61%
15:00 +26°C° 0 mm 3 m/S 744 mmHg 64%
16:00 +26°C° 0 mm 3 m/S 744 mmHg 66%
17:00 +26°C° 0 mm 3 m/S 744 mmHg 69%
18:00 +24°C° 0 mm 3 m/S 744 mmHg 74%
19:00 +23°C° 0 mm 2 m/S 744 mmHg 79%
20:00 +20°C° 0 mm 2 m/S 744 mmHg 84%
21:00 +20°C° 0 mm 2 m/S 744 mmHg 85%
22:00 +19°C° 0 mm 2 m/S 744 mmHg 87%
23:00 +18°C° 0 mm 2 m/S 743 mmHg 88%
Mehr zeigen

Wir brauchen deine Erlaubnis

Meteoprog und unser Service Anbieter werden persönliche Daten aufbewahren, so wie Cookies, Geräte Bezeichnung oder ähnliche Technologien von deinem Gerät und Prozess, so wie Persönliche Daten Inhalte und Werbungen, genauso wie social Media und den Verkehr zu analysieren.

  • Aufbewahrung und/oder Zugang zu deiner Geräte Informationen.

    Cookies, Geräte Bezeichnung oder andere Informationen, können aufbewahrt oder Zugang zu deinem Gerät erhalten, für den Grund, der oben angegeben wird.

  • Personalisierte Werbung und Inhalte, Messungen, Einblick in das Publikum und Produkt Entwicklung.

    Werbungen und Inhalte können personalisiert werden, basierend auf ein Profil. Mehr Daten können besser personalisierte Werbungen und Inhalte hinzufügen. Werbung und Inhalte können gezeigt und gemessen werden. Einblicke über das Publikum, welche die Werbung gesehen haben und den Inhalt, können abgeleitet werden. So wie Daten können genutzt werden, um es zu verbessern oder die Benutzer Erfahrung zu verbessern das System und die Software.

Wenn du “Ich stimme zu” klickst, erlaubst du uns, die Cookies zu benutzen die Geräte Bezeichnung, den Web oder ähnliche Technologien zu benutzen. Deine Settings, können in deinem Gerät bei deinem Browser geändert werden.

Für den bestimmten Zweck, berechtigten Interessen beruhen darauf, mehr als auf den Inhalt. Du kannst mehr darüber in unseren Privaten und Cookie Politik lesen.